Location: *
(38.9555°S, 57.3572°E)
Time: 00:04:28
(UTC+00:00)

SL-8 R/B - Pass Details

Date: 15 July 2020
Orbit: 656 x 668 km, 48.4° (Epoch: 06 August)

Event Time Altitude Azimuth Distance (km) Brightness Sun altitude
Rises 14:40:01 0° 240° (WSW) 3,019 7.8 -17.6°
Reaches altitude 10° 14:42:24 10° 244° (WSW) 2,103 7.0 -18.1°
Maximum altitude 14:47:10 56° 321° (NW) 800 4.3 -19.0°
Enters shadow 14:51:12 14° 37° (NE) 1,834 5.7 -19.8°
